Tracking 31027 objects as of 19-Jul-2025
HD Live streaming from Space Station
objects crossing your sky now

NOAA 16 DEB

Track NOAA 16 DEB now!
10-day predictions


NORAD ID: 41523
Int'l Code: 2000-055MX
Perigee: 811.5 km
Apogee: 822.2 km
Inclination: 98.7 °
Period: 101.1 minutes
Semi major axis: 7187 km
RCS: Unknown
Launch date: September 21, 2000
Source: United States (US)
Launch site: AIR FORCE WESTERN TEST RANGE (AFWTR)

Note: This is SATELLITE DEBRIS
Your satellite tracking list
ARIANE 5 R/B
Track 1 satellite(s)




NASA's NSSDC Master Catalog

Two Line Element Set (TLE):
1 41523U 00055MX  25199.14848069  .00002398  00000-0  10504-2 0  9995
2 41523  98.7355 277.2600 0007452 317.1338  42.9259 14.24632931476757
Source of the keplerian elements: AFSPC